Location: Chandolas
(44.4033°N, 4.2533°E)
Time: 18:07:01
(UTC+00:00)

Cosmos 1680 Rocket - Pass Details

Date: 15 November 2019
Orbit: 759 x 782 km, 74.1° (Epoch: 13 December)

Event Time Altitude Azimuth Distance (km) Brightness Sun altitude
Exits shadow 04:08:34 52° 357° (N) 962 3.9 -26.7°
Maximum altitude 04:09:50 76° 68° (ENE) 805 3.6 -26.5°
Drops below altitude 10° 04:15:08 10° 155° (SSE) 2,328 6.3 -25.6°
Sets 04:17:30 0° 157° (SSE) 3,253 7.1 -25.1°
